Погода в Норске

Погода в Норске : погода сейчас, прогноз погоды и архив. Всё, что Вы хотите узнать о погоде в Норске!

Хотите узнать прогноз погоды в Норске? Тогда Вам сюда: Погода в Норске

Поиск расширенной информации на нашем сайте:

Другие новости

Новости СМИ2

Главная страница сайта

Новости сайта

03.07.2017

Напоминаем, что на нашем специализированном сайте Метеоцентр.Азия вы можете получить высокодетализированные автоматические прогнозы погоды по пунктам России, СНГ и мира в авиационном формате (включающие направление и скорость ветра, видимость, явления погоды, количество и форму облачности, нижнюю и верхнюю границу облачности).


Погода в Норске - сегодня

Время (UTC), дата Ветер
(°,м/с) 
Видим.   Явления Облачность Т
(°С)
Тd
(°С)
f(%) Тe
(°С)
Pmin
(гПа)
dP
(гПа)
Po
(мм)
O2
(г/м3)
Тmin Tmax R s Состояние
почвы
12 09.12.17 тихо ()   20000 м    ясно 
-32.9 -36.5 70 -33  1022.6  0.8  745  343    -22.2       
15 09.12.17 тихо ()   20000 м    ясно 
-35.1 -39.1 67 -35  1023.1  0.2  745  346           
18 09.12.17 тихо ()   20000 м    ясно 
-35.5 -39.6 66 -36  1023.5  0.3  745  347           
21 09.12.17 тихо ()   20000 м    ясно 
-36 -40.1 66 -36  1023.3  -0.2  745  348           
00 10.12.17 тихо ()   20000 м    6/0 средняя, верхняя 
[Ac lent|Ci fib]
-35.4 -39.5 66 -35  1023.8  0.6  745  347  -36.6      равномерный
сухой снег
100% 
03 10.12.17 010 (С) 20000 м    4/0 верхняя 
[Ci fib]
-24.6 -29.6 63 -25  1021.9  -0.7  745  332           
06 10.12.17 010 (С) 20000 м    8/0 средняя, верхняя 
[Ac lent|Ci fib]
-20.3 -26.1 60 -21  1020.7  -0.6  744  326           
09 10.12.17 тихо ()   20000 м    8/0 верхняя 
[Ci fib]
-26.8 -29.5 78 -27  1022.4  0.9  745  335           
12 10.12.17 тихо ()   20000 м    10/0 верхняя 
[Cs]
-26.2 -29.2 76 -26  1022.5  0.2  745  334    -20.2       
15 10.12.17 тихо ()   20000 м    10/0 верхняя 
[Cs]
-25.7 -28.5 77 -26  1022.3  -0.2  745  333           
18 10.12.17 тихо ()   20000 м    10/0 верхняя 
[Cs]
-25 -27.7 78 -25  1021.9  -0.3  745  332           
21 10.12.17 320 (СЗ) 20000 м    10/0 верхняя 
[Cs]
-22.9 -25.1 82 -23  1021.5  -0.1  745  329           
00 11.12.17 010 (С) 20000 м    10/0 средняя, верхняя 
[Ac trans|Cs]
-17.8 -23.9 59 -20  1021.5  0.5  745  323  -26.1      равномерный
сухой снег
100% 
03 11.12.17 030 (СВ) 20000 м    6/0 средняя, верхняя 
[Ac trans|Ci fib]
-13.9 -24.6 40 -17  1020.3  -0.7  745  318           
06 11.12.17 010 (С) 20000 м    6/0 средняя, верхняя 
[Ac trans|Ci fib]
-13.9 -25.2 38 -17  1019.6  -0.6  744  318           
09 11.12.17 030 (СВ) 20000 м    4/0 средняя, верхняя 
[Ac lent|Ci fib]
-16.8 -26 45 -19  1020.6  0.5  745  321           
12 11.12.17 020 (С) 20000 м    4/0 средняя, верхняя 
[Ac lent|Ci fib]
-18.7 -27.2 47 -21  1020.4  -0.3  744  324    -13.3       
15 11.12.17 020 (С) 20000 м    ясно 
-19.8 -27.6 50 -23  1020.1  -0.4  744  325           
18 11.12.17 010 (С) 20000 м    3/0 средняя 
[Ac trans]
-21 -27.6 55 -24  1020.2  744  327           
21 11.12.17 010 (С) 20000 м    6/0 средняя, верхняя 
[Ac trans|Ci fib]
-20 -26.7 55 -23  1019.4  -0.7  743  325           
00 12.12.17 310 (СЗ) 20000 м    10/0 средняя, верхняя 
[Ac trans|Ci sp]
-20.8 -26.2 62 -24  1020.2  0.7  744  326  -21      равномерный
сухой снег
100% 
03 12.12.17 340 (С) 20000 м    10/0 средняя 
[Ac As]
-17.5 -24.6 54 -20  1019.2  -0.5  744  322           
06 12.12.17 350 (С) 20000 м    10/0 средняя 
[Ac As]
-15.3 -23 52 -18  1019.8  0.8  744  319           
09 12.12.17 310 (СЗ) 20000 м    10/0 средняя 
[Ac As]
-16.4 -22.8 58 -19  1021.7  1.6  745  321           
12 12.12.17 320 (СЗ) 20000 м    4/0 верхняя 
[Ci fib]
-16.9 -23.4 57 -19  1022.8  746  322    -15.3       
Время (UTC), дата Ветер
(°,м/с) 
Видим.   Явления Облачность Т
(°С)
Тd
(°С)
f(%) Тe
(°С)
Pmin
(гПа)
dP
(гПа)
Po
(мм)
O2
(г/м3)
Тmin Tmax R s Состояние
почвы

Для получения пояснительной информации подведите курсор к названию столбца.

ПОГОДА в Норске - архив

Всё, что Вы хотите узнать о погоде в Норске - удобно и подробно!

Выберите нужную дату (начиная с 1 января 2015* года) и нажмите кнопку "Найти".
Будут отображены архивные сводки погоды по пункту Норск, начиная с указанной даты.


Отображать данные в формате CSV (для использования в таблицах Excel)


Внимание! Наш архив погоды предназначен исключительно для личного некоммерческого использования в познавательных целях. Если Вам необходимы официальные справки о состоянии погоды (для производственных, юридических, коммерческих и т.п. целей), обращайтесь в органы Росгидромета.

*Примечание: данная дата относится к архиву по метеостанциям СССР (Россия, СНГ, Балтия).
Архив по метеостанциям Зарубежной Европы и Азии (кроме Китая) хранится 10 дней, по другим регионам земного шара (Китай, Африка, Америка, Австралия, Океания) - 1 день.

Норск - район местоположения метеостанции


Название, широта, долгота, высота метеостанции:
Норск 52.3°ш. 129.9°д. 208 м над ур. моря [Российская Федерация]

Дополнительная информация

В oтличие oт бoльшинства пoгoдных сайтoв мы публикуем пoдрoбную метеoинфoрмацию в детальнoм прoфессиoнальнoм фoрмате.

Характеристики температуры и влажнoсти вoздуха измеряются на высoте 2 м в тени вдали oт зданий и деревьев.
Скoрoсть ветра измеряется на высoте 10 м (на урoвне рoста челoвека скoрoсть ветра ниже в 1.5-2 раза). Если метеoстанция нахoдится в гoрoде или в лесу, тo скoрoсть ветра занижена на 2-4 м/с пo сравнению с oткрытым местoм. Скoрoсть ветра над акватoриями крупных рек и oзёр, а также на вершинах хoлмoв на 2-5 м/с выше, чем в oбычных услoвиях.
Атмoсфернoе давление в разных тoчках местнoсти мoжет значительнo oтличаться oт давления на метеoстанции, в зависимoсти oт услoвий рельефа (при пoдъёме на 10 м давление пoнижается примернo на 1 мм рт.ст.).